www.pogodaiklimat.ru

Погода и климат >> Архив погоды >> Россия >> Приморский край >> Сосуново


ПОГОДА в Сосуново

  • Прогноз погоды в Сосуново
  • Монитор погоды в Сосуново

АРХИВ ПОГОДЫ в Сосуново

Время (UTC), дата Ветер
(напр.,м/с)
 
Видим.   Явления Облачность Т
(С)
Тd
(С)
f
(%)
Тe
(С)
Тes
(С)
Комфортность P
(гПа)
Po
(гПа)
Тmin
(С)
Tmax
(С)
R
(мм)
R24
(мм)
S
(см)
21 14.03 ЮЗ 5 20 км 10/0
[Cs]
-8.3 -10.6 83 -16 -16 1017.1 1016.4 -8.7 0.2 1
00 15.03 ЮЗ 5 50 км 10/0
[Cs]
-3.5 -8.4 69 -10 -8 1017.1 1016.4
03 15.03 ЮВ 2 20 км 10/1 600 м
[Cu hum As op]
+0.2 -4.2 72 -3 -1 1015.7 1015.0
06 15.03 В 1 20 км 10/0
[As trans]
-0.6 -4.0 78 -3 -1 1014.4 1013.7
09 15.03 ЮЗ 4 20 км {снег} 8/8 600 м
[Sc]
-0.9 -3.2 84 -7 -7 1014.1 1013.4 +0.5 0.0
12 15.03 ЮЗ 4 20 км {снег} 4/0
[Cs]
-3.4 -5.1 88 -10 -10 1014.6 1013.9
15 15.03 ЮЗ 5 20 км 5/0
[Cs]
-4.1 -6.1 86 -11 -11 1013.9 1013.2
18 15.03 ЮЗ 4 20 км ясно -5.6 -8.4 81 -12 -12 1013.8 1013.1
21 15.03 З 3 20 км 10/0
[As op]
-2.6 -8.4 64 -7 -7 1014.5 1013.8 -6.8 0
00 16.03 ЮЗ 3 20 км 8/8 600 м
[Sc]
-1.6 -7.7 63 -6 -5 1015.1 1014.4
03 16.03 СВ 2 20 км 8/8 600 м
[Sc]
+1.5 -6.1 57 -1 +1 1014.1 1013.4
06 16.03 Ю 2 20 км 4/4 600 м
[Cu hum]
+1.7 -7.5 50 -1 +2 1013.1 1012.4
09 16.03 З 1 20 км 4/4 600 м
[Sc]
-1.3 -6.9 66 -3 -3 1014.1 1013.4 +1.9
12 16.03 ЮЗ 3 20 км ясно -3.5 -7.6 73 -9 -9 1014.6 1013.9
15 16.03 З 4 20 км ясно -1.9 -12.0 46 -7 -7 1014.5 1013.8
18 16.03 З 6 20 км ясно -2.8 -12.4 48 -9 -9 1014.4 1013.7
21 16.03 З 6 50 км ясно -3.8 -13.4 47 -11 -11 1014.2 1013.5 -4.0 0
00 17.03 ЮЗ 3 50 км ясно +2.2 -12.4 33 -1 +4 1014.3 1013.6
03 17.03 Ю 6 20 км 8/0
[Cc]
+2.9 -10.4 37 -2 +2 1012.6 1011.9
06 17.03 Ю 7-12
{12}
20 км 8/8 1000 м
[Cu hum]
+2.4 -7.3 49 -3 -3 1010.5 1009.8
09 17.03 З 1
{12}
20 км 3/3 1000 м
[Cu hum]
+0.8 -9.4 46 -0 -0 1011.0 1010.3 +3.9
12 17.03 ЮЗ 3 20 км ясно -2.9 -9.4 61 -8 -8 1012.1 1011.4
15 17.03 З 2 20 км ясно -5.7 -9.8 73 -10 -10 1011.6 1010.9
18 17.03 ЮЗ 2 20 км ясно -6.5 -10.3 74 -11 -11 1011.2 1010.4
21 17.03 ЮЗ 5 20 км ясно -3.7 -9.6 64 -10 -10 1010.2 1009.5 -7.1
00 18.03 Ю 4 20 км 10/0
[Cs]
+5.4 -11.0 30 +2 +6 1009.1 1008.4
03 18.03 Ю 8-12
{12}
20 км 5/0
[Ci fib]
+6.6 -9.8 30 +2 +4 1006.4 1005.8
06 18.03 Ю 7-11
{15}
20 км 10/0
[Cs]
+2.9 -3.5 63 -3 -2 1004.3 1003.6
09 18.03 Ю 4
{12}
20 км 4/0
[As op]
+0.2 -2.1 85 -5 -5 1003.0 1002.3 +6.7
12 18.03 ЮЗ 3 20 км ясно -1.4 -4.6 79 -6 -6 1002.2 1001.5
15 18.03 ЮЗ 5 20 км 3/0
[Cs]
-1.0 -5.3 73 -7 -7 1001.6 1000.9
18 18.03 ЮЗ 5 20 км ясно -2.4 -5.8 77 -9 -9 1001.6 1000.9
21 18.03 З 2 20 км ясно -4.2 -7.1 80 -8 -8 1003.9 1003.2 -5.0
00 19.03 З 3 20 км ясно +9.5 -19.3 11 +8 +13 1006.9 1006.3 -5.4
03 19.03 СВ 5 20 км 4/0
[Cs]
+5.8 -10.0 31 +2 +8 1009.4 1008.7
06 19.03 СВ 9-11
{13}
20 км 10/10 600 м
[Sc]
+0.5 -2.6 80 -7 -7 1013.9 1013.3
09 19.03 СВ 5
{11}
20 км 10/10 600 м
[Sc]
-1.3 -5.3 74 -7 -7 1016.4 1015.7 +10.1
12 19.03 В 5 20 км 9/9 600 м
[Sc]
-1.7 -6.9 68 -8 -8 1017.7 1017.0
15 19.03 В 6 20 км 10/10 600 м
[Sc]
-2.0 -6.9 69 -9 -9 1018.0 1017.3
18 19.03 В 3 20 км 10/4 600 м
[Sc As op]
-2.6 -7.5 69 -7 -7 1016.0 1015.3
21 19.03 В 2 20 км 10/10 600 м
[Sc]
-2.6 -8.2 65 -6 -6 1013.3 1012.6 -2.7
00 20.03 СВ 2 20 км 10/10 600 м
[Sc]
-2.4 -7.9 66 -6 -6 1010.1 1009.4
03 20.03 СВ 4 20 км {снег} 10/0
[As op]
-2.3 -6.5 73 -8 -7 1008.1 1007.5
06 20.03 СВ 8 20 км {снег} 10/0
[As op]
-2.9 -6.5 76 -11 -11 1010.8 1010.1
09 20.03 В 9-12
{12}
20 км 10/10 600 м
[Sc]
-3.0 -5.9 80 -12 -12 1015.2 1014.5 -2.0 0.2
12 20.03 В 10-13
{13}
4000 м слаб. снег 10/0
[As op]
-3.4 -6.3 80 -13 -13 1018.6 1017.9
15 20.03 В 9-11
{13}
4000 м слаб. снег 10/10 300 м
[Frnb Ns]
-3.8 -6.5 81 -13 -13 1019.9 1019.2
18 20.03 В 8-12
{13}
1000 м снег 10/10 300 м
[Frnb Ns]
-5.4 -7.0 88 -14 -14 1018.3 1017.6
21 20.03 СВ 6-12
{14}
1000 м снег 10/10 300 м
[Frnb Ns]
-6.5 -8.4 86 -15 -15 1017.0 1016.3 -6.5 2 6
00 21.03 С 5
{12}
1000 м снег 10/10 300 м
[Frnb Ns]
-7.0 -9.1 85 -14 -14 1015.4 1014.7 -7.1
03 21.03 СВ 10-15
{15}
1000 м снег 10/10 300 м
[Frnb Ns]
-6.6 -8.5 86 -17 -17 1012.1 1011.4
06 21.03 С 10-16
{19}
1000 м снег 10/10 300 м
[Frnb Ns]
-5.8 -7.2 90 -16 -16 1009.5 1008.8
09 21.03 В 14-19
{19}
1000 м снег 10/10 300 м
[Frnb Ns]
-5.4 -6.8 90 -17 -17 1007.2 1006.5 -5.1 6
12 21.03 В 13-20
{21}
500 м сильная метель ?/? -5.8 -7.5 88 -17 -17 1005.7 1005.0
15 21.03 СЗ 6-12
{20}
500 м ?/? -7.0 -9.4 83 -15 -15 1004.8 1004.1
18 21.03 СЗ 5
{14}
4000 м слаб. снег 10/0
[As op]
-7.5 -10.4 80 -15 -15 1005.0 1004.3

 

Местоположение метеостанции Сосуново (Приморский край, Россия): широта 46.55 долгота 138.30 высота над уровнем моря 4 м.

В архиве по умолчанию представлена погода в Сосуново за последнюю неделю. Архивные данные за месяц целиком и за предыдущие месяцы, начиная с января 2011 года, Вы можете получить, выбрав интересующий диапазон дат из раскрывающегося списка и нажав кнопку "Ввод!".


*Определитесь, кто Вы:
робот инопланетянин человек

Внимание! Время в таблицах - всемирное. Для получения местного времени необходимо прибавить поправку, которая равна 10 ч.

Смотрите также архив погоды в соседних городах и на ближайших метеорологических станциях:

Погода в Агзу (Приморский край, Россия) (117 км)
Погода в Сукпае (Хабаровский край, Россия) (142 км)
Погода в Малой Кеме (Приморский край, Россия) (158 км)
Погода в Гвасюгах (Хабаровский край, Россия) (208 км)
Погода в Тернее (Приморский край, Россия) (217 км)
Погода на Острове Монерон (Сахалинская область, Россия) (225 км)
Погода в Красном Яре (Приморский край, Россия) (230 км)
Погода в Глубинном (Приморский край, Россия) (237 км)
Погода в Бичевой (Хабаровский край, Россия) (245 км)
Погода в Тивяку (Хабаровский край, Россия) (248 км)

Пояснения к столбцам:

Ветер - указаны скорость ветра в м/с - средняя за 10 мин, порывы в срок и между сроками (в фигурных скобках) и направление, откуда дует ветер: С - северный, СВ - северо-восточный, В - восточный, ЮВ - юго-восточный, Ю - южный, ЮЗ - юго-западный, З - западный, СЗ - северо-западный.
Видимость - горизонтальная дальность видимости в метрах или километрах. При видимости от 1 до 10 км при отсутствии осадков обычно наблюдается дымка, при ухудшении видимости до 1 км и менее - туман. В сухую погоду видимость может ухудшаться дымом, пылью или мглою.
Явления - указаны атмосферные явления, наблюдавшиеся в срок или в последний час перед сроком; фигурными скобками обозначены явления, наблюдавшиеся между сроками (за 1-3 часа до срока); квадратными скобками обозначены град или гололедные отложения с указанием их диаметра в мм.
Облачность - указаны через наклонную черту общая и нижняя облачность в баллах и высота нижней границы облаков в метрах; квадратными скобками обозначены формы облаков: Ci - перистые, Cs - перисто-слоистые, Cc - перисто-кучевые, Ac - высококучевые, As - высокослоистые, Sc - слоисто-кучевые, Ns - слоисто-дождевые, Cu - кучевые, Cb - кучево-дождевые. Подробнее классификацию облаков см. в Атласе облаков (PDF).
T - Температура воздуха - температура, измеренная на высоте 2 м над землей.
Td - Температура точки росы - температура, при понижении до которой содержащийся в воздухе водяной пар достигнет насыщения.
f - Относительная влажность воздуха - влажноcть воздуха, измеренная на высоте 2 м над землей.
Te - Эффективная температура - температура, которую ощущает одетый по сезону человек в тени. Характеристика душности погоды. При расчете учитывается влияние влажности воздуха и скорости ветра на теплоощущения человека.
Tes - Эффективная температура на солнце - температура, которую ощущает человек, с поправкой на солнечный нагрев. Характеристика знойности погоды. Зависит от высоты солнца над горизонтом, облачности и скорости ветра. Ночью, в пасмурную погоду, а также при ветре 12 м/с и более поправка равна нулю.
P - Атмосферное давление - приведенное к уровню моря атмосферное давление.
Po - Атмосферное давление - измеренное на уровне метеостанции атмосферное давление.
Tmin - Минимальная температура - минимум температуры воздуха на высоте 2 м над землей.
Tmax - Максимальная температура - максимум температуры воздуха на высоте 2 м над землей.
R - Количество осадков - Количество выпавших осадков за период времени, мм. При наведении курсора мыши на число - период времени, за который выпало указанное количество осадков.
R24 - Количество осадков - Количество выпавших осадков за 24 часа, мм.
S - Снежный покров - Высота снежного покрова, см. При наведении курсора мыши на число - состояние снежного покрова и степень покрытия местности в баллах.